Location: Jackson Park
(37.2862°N, 79.9123°W)
Time: 20:38:45
(UTC+00:00)

Transit 4A - Pass Details

Date: 12 May 2026
Orbit: 860 x 980 km, 66.8° (Epoch: 9 June)

Event Time Altitude Azimuth Distance (km) Brightness Sun altitude
Rises 13:23:18 0° 199° (SSW) 3,507 10.8 36.0°
Reaches altitude 10° 13:25:45 10° 197° (SSW) 2,588 10.2 36.5°
Maximum altitude 13:31:45 71° 115° (ESE) 983 9.2 37.7°
Drops below altitude 10° 13:37:58 10° 32° (NNE) 2,685 10.7 38.9°
Sets 13:40:34 0° 30° (NNE) 3,649 11.3 39.4°
